CGNBR EGCJ-EGPJ

Flight info

Callsign CGNBR
Flight time 1h 5m
Altitude 2500
Route DIRECT
Aircraft BE58/L-V/N

Departure

Time 2026-05-04 11:59
Airport Sherburn-in-Elmet Airfield (EGCJ)

Arrival

Time 2026-05-04 13:05
Airport Fife Airport (EGPJ)
Time Latitude Longitude Altitude Speed Heading
2026-05-04 11:53 53.78474 -1.21373 28 ft 0 kts
2026-05-04 11:58 53.78501 -1.21372 28 ft 21 kts
2026-05-04 11:58 53.78809 -1.21322 31 ft 65 kts
2026-05-04 11:59 53.79356 -1.21223 256 ft 95 kts
2026-05-04 11:59 53.80139 -1.21031 443 ft 129 kts 344°
2026-05-04 11:59 53.81021 -1.21679 668 ft 147 kts 334°
2026-05-04 11:59 53.81993 -1.22403 883 ft 158 kts 334°
2026-05-04 12:00 53.83017 -1.23157 1081 ft 162 kts 335°
2026-05-04 12:00 53.84066 -1.23928 1276 ft 166 kts 335°
2026-05-04 12:00 53.85138 -1.24699 1461 ft 169 kts 335°
2026-05-04 12:00 53.86231 -1.25485 1644 ft 172 kts 335°
2026-05-04 12:01 53.87315 -1.26274 1820 ft 172 kts 335°
2026-05-04 12:01 53.88239 -1.26947 1974 ft 173 kts 335°
2026-05-04 12:02 53.95376 -1.32182 1999 ft 186 kts 335°
2026-05-04 12:03 53.96560 -1.33066 2003 ft 187 kts 335°
2026-05-04 12:03 53.97736 -1.33933 2006 ft 187 kts 335°
2026-05-04 12:03 53.98937 -1.34814 2003 ft 188 kts 335°
2026-05-04 12:03 54.00135 -1.35695 2007 ft 188 kts 335°
2026-05-04 12:04 54.01337 -1.36582 2006 ft 189 kts 335°
2026-05-04 12:04 54.02536 -1.37469 2004 ft 187 kts 335°
2026-05-04 12:04 54.03732 -1.38357 2007 ft 188 kts 335°
2026-05-04 12:04 54.04933 -1.39244 2002 ft 187 kts 335°
2026-05-04 12:05 54.06120 -1.40119 2005 ft 187 kts 335°
2026-05-04 12:05 54.07317 -1.41007 2007 ft 188 kts 335°
2026-05-04 12:05 54.08499 -1.41893 2002 ft 188 kts 335°
2026-05-04 12:05 54.09692 -1.42773 2002 ft 186 kts 335°
2026-05-04 12:06 54.10876 -1.43651 2008 ft 186 kts 335°
2026-05-04 12:06 54.12071 -1.44537 2010 ft 189 kts 335°
2026-05-04 12:06 54.13281 -1.45436 2003 ft 190 kts 335°
2026-05-04 12:06 54.14486 -1.46333 2007 ft 189 kts 335°
2026-05-04 12:07 54.15696 -1.47234 1999 ft 189 kts 335°
2026-05-04 12:07 54.16893 -1.48125 2005 ft 188 kts 335°
2026-05-04 12:07 54.18081 -1.49009 2006 ft 189 kts 335°
2026-05-04 12:07 54.19286 -1.49911 2001 ft 188 kts 335°
2026-05-04 12:08 54.20480 -1.50798 2004 ft 187 kts 335°
2026-05-04 12:08 54.21675 -1.51683 2004 ft 188 kts 335°
2026-05-04 12:08 54.22875 -1.52576 2001 ft 188 kts 335°
2026-05-04 12:08 54.24070 -1.53464 2003 ft 187 kts 335°
2026-05-04 12:09 54.25269 -1.54356 2000 ft 188 kts 335°
2026-05-04 12:09 54.26464 -1.55251 1999 ft 187 kts 335°
2026-05-04 12:09 54.27641 -1.56135 2004 ft 188 kts 335°
2026-05-04 12:09 54.28841 -1.57027 2004 ft 188 kts 335°
2026-05-04 12:10 54.30045 -1.57928 2002 ft 189 kts 335°
2026-05-04 12:10 54.31247 -1.58830 1998 ft 187 kts 335°
2026-05-04 12:10 54.32437 -1.59720 1997 ft 186 kts 335°
2026-05-04 12:10 54.33627 -1.60614 2003 ft 187 kts 335°
2026-05-04 12:11 54.34818 -1.61508 2002 ft 187 kts 335°
2026-05-04 12:11 54.36012 -1.62400 2003 ft 187 kts 335°
2026-05-04 12:11 54.37191 -1.63285 2003 ft 188 kts 335°
2026-05-04 12:11 54.38392 -1.64188 2003 ft 189 kts 335°
2026-05-04 12:12 54.39592 -1.65088 1998 ft 187 kts 335°
2026-05-04 12:12 54.40784 -1.65982 2003 ft 187 kts 335°
2026-05-04 12:12 54.41977 -1.66881 1999 ft 187 kts 335°
2026-05-04 12:12 54.43165 -1.67774 1997 ft 186 kts 335°
2026-05-04 12:13 54.44348 -1.68664 1998 ft 186 kts 335°
2026-05-04 12:14 54.52671 -1.74943 2004 ft 188 kts 335°
2026-05-04 12:15 54.53872 -1.75848 2005 ft 189 kts 335°
2026-05-04 12:15 54.54667 -1.76449 2000 ft 187 kts 335°
2026-05-04 12:15 54.56248 -1.77641 2003 ft 188 kts 335°
2026-05-04 12:15 54.57442 -1.78544 2002 ft 188 kts 335°
2026-05-04 12:16 54.58634 -1.79450 2001 ft 187 kts 335°
2026-05-04 12:16 54.59826 -1.80350 2001 ft 187 kts 335°
2026-05-04 12:16 54.61014 -1.81254 1999 ft 186 kts 335°
2026-05-04 12:16 54.62200 -1.82153 2005 ft 187 kts 335°
2026-05-04 12:17 54.62990 -1.82754 2001 ft 188 kts 335°
2026-05-04 12:17 54.64583 -1.83960 1998 ft 186 kts 335°
2026-05-04 12:17 54.65365 -1.84555 1997 ft 185 kts 335°
2026-05-04 12:17 54.66924 -1.85743 1999 ft 185 kts 335°
2026-05-04 12:18 54.68094 -1.86637 1998 ft 185 kts 335°
2026-05-04 12:18 54.69279 -1.87544 1998 ft 187 kts 335°
2026-05-04 12:18 54.70467 -1.88441 1998 ft 186 kts 335°
2026-05-04 12:18 54.71621 -1.89309 1995 ft 172 kts 335°
2026-05-04 12:19 54.72329 -1.89840 1990 ft 164 kts 335°
2026-05-04 12:19 54.73346 -1.90600 1989 ft 155 kts 335°
2026-05-04 12:19 54.74322 -1.91327 1989 ft 151 kts 335°
2026-05-04 12:19 54.75271 -1.92036 1990 ft 148 kts 335°
2026-05-04 12:20 54.76506 -1.92959 1991 ft 145 kts 335°
2026-05-04 12:20 54.77426 -1.93650 1991 ft 144 kts 335°
2026-05-04 12:20 54.78346 -1.94335 1993 ft 143 kts 335°
2026-05-04 12:20 54.78952 -1.94789 1994 ft 144 kts 335°
2026-05-04 12:21 54.79872 -1.95478 1994 ft 144 kts 335°
2026-05-04 12:21 54.80795 -1.96174 1994 ft 145 kts 335°
2026-05-04 12:21 54.81719 -1.96869 1994 ft 145 kts 335°
2026-05-04 12:21 54.82644 -1.97559 1993 ft 144 kts 335°
2026-05-04 12:22 54.83866 -1.98475 1995 ft 145 kts 335°
2026-05-04 12:22 54.84493 -1.98945 1995 ft 145 kts 335°
2026-05-04 12:22 54.85419 -1.99638 1994 ft 145 kts 335°
2026-05-04 12:22 54.86330 -2.00323 1993 ft 144 kts 335°
2026-05-04 12:23 54.87251 -2.01013 1993 ft 144 kts 335°
2026-05-04 12:23 54.88168 -2.01703 1992 ft 143 kts 335°
2026-05-04 12:23 54.89079 -2.02384 1993 ft 143 kts 335°
2026-05-04 12:23 54.89993 -2.03071 1995 ft 143 kts 335°
2026-05-04 12:24 54.90910 -2.03759 1993 ft 144 kts 335°
2026-05-04 12:24 54.91824 -2.04446 1994 ft 143 kts 335°
2026-05-04 12:24 54.92738 -2.05138 1994 ft 144 kts 335°
2026-05-04 12:24 54.93654 -2.05825 1992 ft 143 kts 335°
2026-05-04 12:25 54.94557 -2.06502 1991 ft 143 kts 335°
2026-05-04 12:25 54.95477 -2.07195 1992 ft 145 kts 335°
2026-05-04 12:25 54.96408 -2.07895 1991 ft 145 kts 335°
2026-05-04 12:25 54.97324 -2.08586 1992 ft 143 kts 335°
2026-05-04 12:26 54.98240 -2.09274 2001 ft 145 kts 335°
2026-05-04 12:26 54.99169 -2.09970 1996 ft 146 kts 335°
2026-05-04 12:26 55.00111 -2.10679 2000 ft 147 kts 335°
2026-05-04 12:26 55.01048 -2.11388 2003 ft 147 kts 335°
2026-05-04 12:27 55.01972 -2.12092 1998 ft 146 kts 335°
2026-05-04 12:27 55.02899 -2.12791 1996 ft 144 kts 335°
2026-05-04 12:27 55.03821 -2.13482 2000 ft 145 kts 335°
2026-05-04 12:27 55.04750 -2.14185 1997 ft 145 kts 335°
2026-05-04 12:28 55.05677 -2.14890 2000 ft 146 kts 335°
2026-05-04 12:28 55.06612 -2.15591 1999 ft 147 kts 335°
2026-05-04 12:28 55.07552 -2.16292 1998 ft 147 kts 335°
2026-05-04 12:28 55.08488 -2.16997 1994 ft 146 kts 335°
2026-05-04 12:29 55.09417 -2.17699 1999 ft 146 kts 335°
2026-05-04 12:29 55.10338 -2.18395 1996 ft 146 kts 335°
2026-05-04 12:29 55.11268 -2.19096 1996 ft 145 kts 335°
2026-05-04 12:29 55.12194 -2.19799 1996 ft 145 kts 335°
2026-05-04 12:30 55.13117 -2.20501 1997 ft 144 kts 335°
2026-05-04 12:30 55.14041 -2.21201 1998 ft 146 kts 335°
2026-05-04 12:30 55.14969 -2.21902 1995 ft 145 kts 335°
2026-05-04 12:30 55.15892 -2.22600 1993 ft 144 kts 335°
2026-05-04 12:31 55.16809 -2.23293 1993 ft 143 kts 335°
2026-05-04 12:31 55.17712 -2.23975 1993 ft 144 kts 336°
2026-05-04 12:31 55.18644 -2.24621 1993 ft 144 kts 337°
2026-05-04 12:31 55.19576 -2.25263 1993 ft 144 kts 337°
2026-05-04 12:32 55.20507 -2.25903 1993 ft 144 kts 337°
2026-05-04 12:32 55.22363 -2.27185 1990 ft 143 kts 337°
2026-05-04 12:32 55.23282 -2.27822 1990 ft 141 kts 336°
2026-05-04 12:33 55.24196 -2.28452 1992 ft 141 kts 337°
2026-05-04 12:33 55.25092 -2.29070 2053 ft 137 kts 336°
2026-05-04 12:33 55.25962 -2.29666 2167 ft 132 kts 337°
2026-05-04 12:33 55.26803 -2.30243 2296 ft 129 kts 336°
2026-05-04 12:34 55.27630 -2.30805 2409 ft 126 kts 336°
2026-05-04 12:34 55.28444 -2.31359 2494 ft 127 kts 336°
2026-05-04 12:34 55.29287 -2.31938 2497 ft 133 kts 337°
2026-05-04 12:34 55.30161 -2.32541 2503 ft 137 kts 336°
2026-05-04 12:35 55.31053 -2.33158 2510 ft 139 kts 337°
2026-05-04 12:35 55.31958 -2.33785 2511 ft 140 kts 336°
2026-05-04 12:35 55.32862 -2.34414 2509 ft 142 kts 337°
2026-05-04 12:35 55.33786 -2.35049 2510 ft 142 kts 337°
2026-05-04 12:36 55.34705 -2.35688 2509 ft 142 kts 337°
2026-05-04 12:36 55.35631 -2.36327 2509 ft 144 kts 336°
2026-05-04 12:36 55.36563 -2.36972 2507 ft 144 kts 336°
2026-05-04 12:36 55.37493 -2.37618 2509 ft 144 kts 336°
2026-05-04 12:37 55.38425 -2.38261 2506 ft 143 kts 337°
2026-05-04 12:37 55.39349 -2.38898 2505 ft 142 kts 337°
2026-05-04 12:37 55.40257 -2.39527 2505 ft 142 kts 336°
2026-05-04 12:37 55.41176 -2.40162 2507 ft 143 kts 336°
2026-05-04 12:38 55.42102 -2.40805 2505 ft 142 kts 336°
2026-05-04 12:38 55.43021 -2.41443 2510 ft 143 kts 336°
2026-05-04 12:38 55.43958 -2.42097 2504 ft 146 kts 336°
2026-05-04 12:38 55.44894 -2.42749 2509 ft 144 kts 336°
2026-05-04 12:39 55.45839 -2.43410 2504 ft 147 kts 336°
2026-05-04 12:39 55.46792 -2.44078 2505 ft 148 kts 336°
2026-05-04 12:39 55.47729 -2.44730 2504 ft 145 kts 336°
2026-05-04 12:39 55.48675 -2.45396 2508 ft 148 kts 336°
2026-05-04 12:40 55.49626 -2.46071 2513 ft 147 kts 336°
2026-05-04 12:40 55.50584 -2.46747 2502 ft 148 kts 336°
2026-05-04 12:40 55.51533 -2.47411 2510 ft 148 kts 336°
2026-05-04 12:40 55.52498 -2.48092 2506 ft 151 kts 336°
2026-05-04 12:41 55.53474 -2.48779 2510 ft 152 kts 336°
2026-05-04 12:41 55.54458 -2.49475 2508 ft 152 kts 336°
2026-05-04 12:41 55.55443 -2.50171 2506 ft 152 kts 336°
2026-05-04 12:41 55.56412 -2.50855 2503 ft 151 kts 336°
2026-05-04 12:42 55.57385 -2.51540 2508 ft 151 kts 336°
2026-05-04 12:42 55.58366 -2.52231 2502 ft 151 kts 336°
2026-05-04 12:42 55.59338 -2.52916 2504 ft 151 kts 336°
2026-05-04 12:42 55.60306 -2.53594 2501 ft 149 kts 336°
2026-05-04 12:43 55.61265 -2.54264 2499 ft 147 kts 337°
2026-05-04 12:43 55.62220 -2.54939 2498 ft 148 kts 335°
2026-05-04 12:43 55.63176 -2.55632 2496 ft 148 kts 335°
2026-05-04 12:43 55.64136 -2.56326 2498 ft 150 kts 336°
2026-05-04 12:44 55.65087 -2.57001 2491 ft 148 kts 336°
2026-05-04 12:44 55.66030 -2.57677 2496 ft 146 kts 336°
2026-05-04 12:44 55.66979 -2.58353 2495 ft 148 kts 336°
2026-05-04 12:44 55.67925 -2.59025 2495 ft 146 kts 336°
2026-05-04 12:45 55.68877 -2.59698 2500 ft 149 kts 336°
2026-05-04 12:45 55.69848 -2.60389 2496 ft 151 kts 336°
2026-05-04 12:45 55.70819 -2.61074 2496 ft 150 kts 336°
2026-05-04 12:45 55.71786 -2.61757 2499 ft 150 kts 336°
2026-05-04 12:46 55.72747 -2.62441 2496 ft 148 kts 336°
2026-05-04 12:46 55.73684 -2.63102 2497 ft 147 kts 336°
2026-05-04 12:46 55.74635 -2.63774 2491 ft 146 kts 336°
2026-05-04 12:46 55.75577 -2.64444 2493 ft 146 kts 336°
2026-05-04 12:47 55.76526 -2.65098 2494 ft 147 kts 337°
2026-05-04 12:47 55.77474 -2.65759 2493 ft 146 kts 337°
2026-05-04 12:47 55.78416 -2.66421 2493 ft 145 kts 337°
2026-05-04 12:47 55.79358 -2.67086 2493 ft 146 kts 336°
2026-05-04 12:48 55.80288 -2.67742 2494 ft 146 kts 337°
2026-05-04 12:48 55.81232 -2.68411 2491 ft 146 kts 337°
2026-05-04 12:48 55.82172 -2.69080 2492 ft 146 kts 337°
2026-05-04 12:48 55.83111 -2.69747 2491 ft 145 kts 336°
2026-05-04 12:49 55.84048 -2.70415 2492 ft 145 kts 336°
2026-05-04 12:49 55.84986 -2.71077 2495 ft 146 kts 336°
2026-05-04 12:49 55.85934 -2.71753 2495 ft 146 kts 336°
2026-05-04 12:49 55.86884 -2.72425 2498 ft 148 kts 336°
2026-05-04 12:50 55.87844 -2.73104 2505 ft 149 kts 336°
2026-05-04 12:50 55.88802 -2.73792 2506 ft 153 kts 336°
2026-05-04 12:50 55.89778 -2.74491 2499 ft 149 kts 336°
2026-05-04 12:50 55.90731 -2.75166 2498 ft 146 kts 336°
2026-05-04 12:51 55.91679 -2.75840 2498 ft 147 kts 336°
2026-05-04 12:51 55.92623 -2.76513 2498 ft 145 kts 336°
2026-05-04 12:51 55.93568 -2.77186 2503 ft 148 kts 336°
2026-05-04 12:51 55.94522 -2.77870 2495 ft 146 kts 336°
2026-05-04 12:52 55.95470 -2.78550 2500 ft 148 kts 336°
2026-05-04 12:52 55.96429 -2.79237 2505 ft 150 kts 336°
2026-05-04 12:52 55.97387 -2.79920 2505 ft 151 kts 336°
2026-05-04 12:52 55.98356 -2.80613 2502 ft 149 kts 336°
2026-05-04 12:53 55.99318 -2.81303 2501 ft 149 kts 336°
2026-05-04 12:53 56.00269 -2.81983 2499 ft 146 kts 335°
2026-05-04 12:53 56.01218 -2.82667 2503 ft 148 kts 337°
2026-05-04 12:53 56.02176 -2.83356 2501 ft 148 kts 335°
2026-05-04 12:54 56.03141 -2.84046 2508 ft 151 kts 336°
2026-05-04 12:54 56.04120 -2.84745 2505 ft 152 kts 336°
2026-05-04 12:54 56.05078 -2.85431 2501 ft 149 kts 336°
2026-05-04 12:54 56.06033 -2.86115 2500 ft 147 kts 336°
2026-05-04 12:55 56.06981 -2.86794 2498 ft 146 kts 336°
2026-05-04 12:55 56.07922 -2.87469 2496 ft 145 kts 336°
2026-05-04 12:55 56.08860 -2.88142 2495 ft 145 kts 336°
2026-05-04 12:55 56.09795 -2.88814 2494 ft 145 kts 336°
2026-05-04 12:56 56.10729 -2.89485 2494 ft 145 kts 336°
2026-05-04 12:56 56.11663 -2.90154 2493 ft 144 kts 336°
2026-05-04 12:56 56.12595 -2.90825 2493 ft 144 kts 336°
2026-05-04 12:56 56.13514 -2.91485 2493 ft 144 kts 336°
2026-05-04 12:57 56.14447 -2.92155 2493 ft 144 kts 336°
2026-05-04 12:57 56.15382 -2.92827 2493 ft 144 kts 336°
2026-05-04 12:57 56.16313 -2.93497 2493 ft 144 kts 336°
2026-05-04 12:57 56.17246 -2.94171 2493 ft 144 kts 336°
2026-05-04 12:58 56.18178 -2.94841 2493 ft 144 kts 336°
2026-05-04 12:58 56.19111 -2.95515 2493 ft 145 kts 336°
2026-05-04 12:58 56.20043 -2.96188 2493 ft 144 kts 336°
2026-05-04 12:58 56.20977 -2.96861 2502 ft 145 kts 336°
2026-05-04 12:59 56.21916 -2.97545 2495 ft 149 kts 336°
2026-05-04 12:59 56.22865 -2.98230 2494 ft 146 kts 336°
2026-05-04 12:59 56.23799 -2.98905 2493 ft 144 kts 336°
2026-05-04 12:59 56.24738 -2.99581 2497 ft 148 kts 336°
2026-05-04 13:00 56.25687 -3.00269 2493 ft 146 kts 336°
2026-05-04 13:00 56.26620 -3.00986 2541 ft 140 kts 317°
2026-05-04 13:00 56.26599 -3.02561 2262 ft 119 kts 261°
2026-05-04 13:00 56.26466 -3.04081 1953 ft 120 kts 261°
2026-05-04 13:01 56.26165 -3.05451 1624 ft 126 kts 239°
2026-05-04 13:01 56.25789 -3.06882 1785 ft 132 kts 249°
2026-05-04 13:01 56.25155 -3.08302 1881 ft 142 kts 225°
2026-05-04 13:01 56.24266 -3.09553 1429 ft 179 kts 218°
2026-05-04 13:02 56.23434 -3.10887 1949 ft 141 kts 223°
2026-05-04 13:02 56.22863 -3.12164 1952 ft 131 kts 256°
2026-05-04 13:02 56.22732 -3.13827 1832 ft 127 kts 266°
2026-05-04 13:02 56.22342 -3.15394 1312 ft 147 kts 238°
2026-05-04 13:03 56.21764 -3.16621 1664 ft 107 kts 231°
2026-05-04 13:03 56.21226 -3.17615 1501 ft 119 kts 235°
2026-05-04 13:03 56.20929 -3.19047 1360 ft 123 kts 265°
2026-05-04 13:03 56.20777 -3.20471 1367 ft 113 kts 249°
2026-05-04 13:04 56.20356 -3.21752 1624 ft 123 kts 240°
2026-05-04 13:04 56.19779 -3.22368 1477 ft 113 kts 135°
2026-05-04 13:04 56.19282 -3.20941 966 ft 126 kts 132°
2026-05-04 13:04 56.18653 -3.20940 509 ft 104 kts 235°
2026-05-04 13:05 56.18357 -3.21933 390 ft 61 kts 239°
2026-05-04 13:05 56.18279 -3.22180 392 ft 6 kts 244°
2026-05-04 13:05 56.18279 -3.22182 392 ft 0 kts 244°
2026-05-04 13:06 56.18277 -3.22188 392 ft 11 kts 243°
2026-05-04 13:06 56.18171 -3.22497 388 ft 10 kts 187°
2026-05-04 13:06 56.18149 -3.22482 389 ft 15 kts 119°
2026-05-04 13:07 56.18173 -3.22363 391 ft 6 kts 66°
2026-05-04 13:07 56.18178 -3.22343 391 ft 0 kts 65°